RH
62 54 56 58 62 61 61 55 47 40 36 25 21 18 17 17 18 18 17 14 11 11 13 14 14 15 14 14 14 14 14 14 21 28 30 38 39 48 39 34 31 34 38
78 67 63 62 63 63 62 55 49 44 38 25 21 17 15 15 14 12 12 11 12 14 14 14 15 14 14 14 14 14 16 19 29 31 40 43 60 62 45 37 31 31 32
85 71 68 69 68 68 63 56 52 45 37 26 19 13 12 13 14 14 14 14 15 16 17 16 15 16 17 18 18 18 27 38 35 38 41 51 44 41 40 34 31 32 29
81 77 76 73 73 72 64 61 53 47 36 24 16 10 11 14 15 14 16 17 18 18 18 18 18 19 20 21 21 26 30 36 34 36 51 66 48 41 32 31 35 35 27
86 78 84 78 77 72 68 63 56 46 31 22 12 9 13 15 15 17 19 20 20 21 21 21 21 22 24 24 23 28 32 34 38 42 56 47 42 40 34 28 25 26 26
84 84 83 81 79 77 70 64 54 39 28 17 10 10 14 15 18 20 21 21 22 23 23 23 25 28 30 32 30 28 31 36 34 37 42 38 34 28 27 29 31 30 29
90 90 88 89 81 77 74 64 52 34 20 16 10 12 14 18 21 22 23 24 25 25 27 27 29 32 34 36 36 35 36 39 39 35 36 36 36 33 29 28 28 29 29
93 97 95 89 88 79 72 59 43 28 20 12 10 12 17 20 23 25 26 26 27 29 31 31 30 33 35 36 38 38 40 43 48 41 41 41 40 39 34 33 33 32 32
94 94 96 95 89 75 64 48 34 21 11 11 10 14 20 24 26 28 28 28 29 32 34 33 33 38 39 41 43 43 43 45 45 46 45 45 42 42 41 37 36 35 35
92 88 93 91 81 67 55 44 36 22 17 11 12 22 24 27 28 28 28 28 31 35 36 35 41 46 50 54 53 51 49 47 49 48 48 49 46 42 41 40 39 39 36
97 90 91 83 74 57 47 40 28 16 16 15 18 24 27 30 33 34 32 36 43 47 51 51 56 57 60 60 59 59 54 50 48 48 46 46 47 47 43 41 39 38 35
88 81 84 72 56 46 38 28 20 17 12 15 25 29 29 35 38 39 46 55 64 70 70 69 68 69 67 66 64 60 55 49 47 49 50 50 51 50 48 41 40 36 33
82 89 71 57 44 31 22 19 17 16 17 21 27 36 43 47 46 53 62 65 73 79 74 76 72 68 70 70 62 56 53 49 47 48 49 48 47 46 45 43 39 37 35
84 71 55 40 35 30 24 22 22 21 22 29 34 45 52 52 60 61 67 72 78 75 72 70 71 72 73 68 60 59 56 55 52 53 51 49 49 48 46 44 41 38 38
70 50 43 35 30 29 25 23 27 29 33 38 42 47 58 63 62 68 77 79 76 74 74 73 74 74 66 56 56 54 51 48 48 47 47 46 45 43 42 38 37 39 37
39 28 26 25 25 25 29 35 37 44 50 56 61 64 67 64 60 72 74 72 74 76 78 72 63 54 48 48 47 46 45 47 46 43 42 42 35 31 30 30 33 34 32
28 29 26 25 33 39 42 45 55 62 64 65 68 69 63 56 60 64 70 70 68 61 55 54 50 45 43 42 42 39 36 35 34 31 28 30 32 31 30 29 31 32 33
36 33 33 41 42 49 57 64 67 68 67 65 62 57 58 55 58 57 54 51 51 49 47 48 47 46 44 42 39 35 32 31 29 28 28 30 31 33 36 39 39 40 38
38 40 45 50 52 68 67 62 63 67 71 62 55 52 52 49 51 52 54 54 52 49 46 46 47 47 44 40 37 34 31 31 29 29 31 33 36 42 47 48 46 46 45
44 49 54 58 61 66 60 62 69 67 63 54 52 51 51 53 50 52 53 53 52 51 51 49 46 43 41 37 35 34 35 34 33 35 37 40 43 48 51 49 48 46 46
44 50 52 58 70 64 65 66 65 60 50 51 52 50 51 54 54 52 50 51 52 52 49 44 42 37 35 35 35 35 34 33 32 33 33 33 38 43 46 49 48 46 44
42 46 56 67 67 66 62 65 54 48 49 49 48 48 51 49 49 51 54 55 52 52 48 43 39 38 38 41 40 36 34 33 33 33 31 31 34 37 43 48 50 51 51
48 52 56 55 59 58 60 54 49 50 48 45 47 47 49 52 54 58 57 56 55 53 48 43 41 41 43 43 42 40 38 38 36 34 33 31 32 33 35 38 43 46 48
49 52 54 58 58 57 53 55 50 46 45 47 50 52 55 54 57 58 59 61 59 55 56 54 46 45 45 45 44 44 41 42 43 42 43 40 39 36 37 40 40 41 42
52 53 52 51 48 53 53 51 49 47 49 50 53 57 58 60 58 61 62 62 58 53 50 47 45 46 48 46 47 45 43 40 46 50 46 46 46 48 45 42 44 44 41
45 48 50 49 53 53 53 51 50 52 55 58 62 64 64 64 64 63 62 57 54 51 50 49 46 46 45 45 45 46 46 47 51 58 56 54 54 52 50 47 49 47 42